Location: Schommer Observatory
(40.5200°N, 74.4500°W)
Time: 09:51:12
(UTC-04:00)

Vanguard 1 Rocket - Visible Passes

Search period start: 18 June 2018 00:00
Search period end: 28 June 2018 00:00
Orbit: 653 x 4224 km, 34.3° (Epoch: 18 June)

Date Brightness Start Highest point End Pass type
(mag) Time Alt. Az. Time Alt. Az. Time Alt. Az.
18 Jun 10.0 00:16:17 10° W 00:25:29 31° SSW 00:26:24 30° SSW visible
18 Jun 9.5 23:05:11 10° W 23:13:12 37° SSW 23:18:20 29° SSE visible
19 Jun 10.6 01:33:19 10° WSW 01:35:32 13° WSW 01:35:32 13° WSW visible
19 Jun 8.9 21:54:36 10° W 22:01:22 43° SSW 22:10:23 18° SE visible
20 Jun 10.1 00:20:23 10° WSW 00:27:36 23° SSW 00:27:36 23° SSW visible
20 Jun 8.4 20:44:18 10° W 20:50:01 48° S 21:00:12 10° ESE visible
20 Jun 9.7 23:08:53 10° WSW 23:16:19 30° SSW 23:19:46 26° S visible
21 Jun 9.1 21:58:06 10° W 22:04:32 36° SSW 22:12:00 18° SE visible
22 Jun 10.4 00:25:11 10° WSW 00:29:14 16° SW 00:29:14 16° SW visible
22 Jun 9.9 23:12:55 10° WSW 23:19:29 22° SSW 23:21:33 21° S visible
23 Jun 9.4 22:01:48 10° WSW 22:07:43 28° SSW 22:13:56 17° SSE visible
24 Jun 10.2 23:17:40 10° WSW 23:22:42 16° SSW 23:23:37 15° SSW visible
25 Jun 9.6 22:05:48 10° WSW 22:10:57 21° SSW 22:16:07 14° SSE visible
26 Jun 9.1 20:54:51 10° WSW 20:59:36 26° SSW 21:06:48 10° SE visible
27 Jun 9.9 22:10:33 10° SW 22:14:12 14° SSW 22:18:31 10° S visible
